EUTELSAT 3B

Last updated on Thu Nov 21 2024 00:02:42 GMT+0000 (Coordinated Universal Time)

1 39773U 14030A 24325.29584323 .00000021 00000+0 00000+0 0 9990 2 39773 0.0646 1.5752 0005440 218.8476 308.9847 1.00272618 38317
UTC large
Height (km)
Speed (km/s)
/
Latitude / Longitude
Inclination (degrees)
Orbital Period (minutes)
Azimuth
Elevation
Range (km)
Doppler Factor

Next 0 passes for location: London (51.5072 / 0.1276)

Sorry there are no passes over London.